Weather History for KAHN - November, 2012

Change the Weather History Date:

Sunday, November 4, 2012

  Actual Average Record
Temperature  
Mean Temperature 62 °F 57 °F  
Max Temperature 74 °F 69 °F 83 °F (1946)
Min Temperature 50 °F 46 °F 26 °F (1966)
Degree Days  
Heating Degree Days 3 8  
Month to date heating degree days 30 31  
Since 1 July heating degree days 153 166  
Growing Degree Days 14 (Base 50)    
Moisture  
Dew Point 52 °F    
Average Humidity 73    
Maximum Humidity 93    
Minimum Humidity 53    
Precipitation  
Precipitation T in 0.11 in 1.63 in (1992)
Month to date precipitation T 0.46  
Year to date precipitation 30.54 39.24  
Snow  
Snow 0.00 in 0.00 in 0.00 in (2001)
Month to date snowfall 0.0 0.0  
Since 1 July snowfall 0.0 0.0  
Since 1 September snowfall 0.0 0.0  
Snow Depth -    
Sea Level Pressure  
Sea Level Pressure 29.98 in    
Wind  
Wind Speed 6 mph (West)    
Max Wind Speed 17 mph    
Max Gust Speed 26 mph    
Visibility 7 miles    
Events Rain    
T = Trace of Precipitation, MM = Missing Value Source: NWS Daily Summary

Daily Weather History Graph

Daily Weather History Graph

Search for Another Location

Airport or City:

Trip Planner

Search our weather history database for the weather conditions in past years. The results will help you decide how hot, cold, wet, or windy it might be!

Date:

Astronomy

Nov. 04, 2012 Rise Set
Actual Time 6:55 AM EST 5:37 PM EST
Civil Twilight 6:29 AM EST 6:03 PM EST
Nautical Twilight 6:00 AM EST 6:33 PM EST
Astronomical Twilight 5:30 AM EST 7:02 PM EST
Moon 10:16 PM EST 11:35 AM EST
Length of Visible Light 11h 33m
Length of Day
10h 41m
Waning Gibbous, 72% of the Moon is Illuminated
Nov 4
Waning Gibbous
Nov 6
Last Quarter
Nov 13
New
Nov 20
First Quarter
Nov 28
Full

Hourly Weather History & Observations

Time (EST) Temp. Dew Point Humidity Pressure Visibility Wind Dir Wind Speed Gust Speed Precip Events Conditions
12:51 AM 61.0 °F 52.0 °F 72% 30.00 in 7.0 mi WSW 3.5 mph - N/A   Clear
1:51 AM 61.0 °F 52.0 °F 72% 29.99 in 7.0 mi WSW 4.6 mph - N/A   Clear
1:51 AM 60.1 °F 52.0 °F 75% 29.98 in 7.0 mi WSW 4.6 mph - N/A   Clear
2:51 AM 62.1 °F 53.1 °F 72% 29.99 in 7.0 mi West 4.6 mph - N/A   Clear
3:51 AM 59.0 °F 53.1 °F 81% 29.96 in 7.0 mi SW 4.6 mph - N/A   Clear
4:51 AM 57.9 °F 53.1 °F 84% 29.98 in 7.0 mi West 3.5 mph - N/A   Clear
5:51 AM 55.9 °F 53.1 °F 90% 29.99 in 7.0 mi WSW 3.5 mph - N/A   Clear
6:51 AM 55.0 °F 52.0 °F 89% 30.00 in 6.0 mi SW 3.5 mph - N/A   Clear
7:51 AM 57.2 °F 53.6 °F 88% 30.01 in 5.0 mi Calm Calm - N/A   Haze
8:51 AM 61.0 °F 54.0 °F 78% 30.01 in 5.0 mi WSW 3.5 mph - N/A   Haze
9:51 AM 68.0 °F 55.0 °F 63% 30.00 in 7.0 mi WNW 6.9 mph - N/A   Clear
10:51 AM 71.6 °F 55.4 °F 57% 30.00 in 8.0 mi West 11.5 mph 17.3 mph N/A   Scattered Clouds
11:51 AM 73.0 °F 55.9 °F 55% 29.97 in 8.0 mi WNW 8.1 mph 21.9 mph N/A   Clear
12:51 PM 73.0 °F 55.0 °F 53% 29.96 in 8.0 mi West 9.2 mph - N/A   Partly Cloudy
1:51 PM 70.0 °F 52.0 °F 53% 29.94 in 7.0 mi West 6.9 mph 24.2 mph 0.00 in Rain Light Rain
2:51 PM 68.0 °F 51.1 °F 55% 29.94 in 8.0 mi West 8.1 mph - 0.00 in   Mostly Cloudy
3:51 PM 66.0 °F 52.0 °F 60% 29.95 in 8.0 mi West 9.2 mph 17.3 mph 0.00 in   Mostly Cloudy
4:51 PM 64.0 °F 54.0 °F 70% 29.95 in 6.0 mi West 9.2 mph - N/A   Haze
5:51 PM 62.1 °F 52.0 °F 70% 29.96 in 7.0 mi West 4.6 mph - N/A   Scattered Clouds
6:51 PM 60.1 °F 51.1 °F 72% 29.97 in 7.0 mi WNW 5.8 mph - N/A   Clear
7:51 PM 57.9 °F 46.9 °F 67% 29.98 in 7.0 mi WNW 5.8 mph - N/A   Clear
8:51 PM 57.0 °F 45.0 °F 64% 29.98 in 8.0 mi WNW 9.2 mph - N/A   Clear
9:51 PM 55.0 °F 44.1 °F 67% 29.98 in 8.0 mi WNW 6.9 mph - N/A   Clear
10:51 PM 53.1 °F 43.0 °F 69% 29.98 in 8.0 mi NNW 4.6 mph - N/A   Clear